QPF
0.00 0.00 0.02 0.05 0.11 0.12 0.06 0.04 0.03 0.02 0.02 0.02 0.02 0.03 0.05 0.06 0.08 0.13 0.14 0.12 0.12 0.17 0.17 0.12 0.10 0.08 0.07 0.07 0.07 0.07 0.09 0.08 0.06 0.08 0.08 0.08 0.06 0.06 0.09 0.09 0.06 0.05 0.06 0.05 0.06 0.06 0.05 0.04 0.04
0.00 0.01 0.04 0.09 0.15 0.08 0.04 0.02 0.03 0.04 0.03 0.02 0.01 0.02 0.02 0.03 0.05 0.07 0.10 0.13 0.10 0.10 0.09 0.06 0.05 0.04 0.05 0.05 0.06 0.08 0.08 0.07 0.08 0.08 0.09 0.08 0.07 0.08 0.10 0.10 0.07 0.05 0.07 0.08 0.07 0.06 0.05 0.05 0.04
0.01 0.03 0.05 0.13 0.10 0.06 0.04 0.02 0.02 0.03 0.03 0.02 0.02 0.03 0.05 0.05 0.05 0.06 0.10 0.10 0.08 0.08 0.07 0.06 0.05 0.04 0.04 0.04 0.06 0.08 0.09 0.09 0.10 0.08 0.09 0.08 0.08 0.08 0.09 0.09 0.08 0.08 0.12 0.11 0.08 0.06 0.05 0.05 0.04
0.02 0.03 0.05 0.08 0.04 0.04 0.01 0.01 0.01 0.02 0.01 0.01 0.02 0.05 0.09 0.08 0.08 0.09 0.11 0.10 0.08 0.09 0.07 0.07 0.07 0.05 0.05 0.06 0.07 0.08 0.09 0.09 0.08 0.08 0.09 0.07 0.07 0.07 0.10 0.12 0.12 0.10 0.10 0.12 0.11 0.06 0.04 0.04 0.05
0.01 0.03 0.10 0.07 0.03 0.01 0.00 0.00 0.00 0.01 0.02 0.01 0.02 0.05 0.07 0.08 0.08 0.10 0.12 0.10 0.09 0.12 0.10 0.07 0.05 0.05 0.07 0.06 0.06 0.08 0.09 0.07 0.07 0.08 0.06 0.06 0.08 0.09 0.11 0.11 0.09 0.07 0.08 0.11 0.13 0.09 0.06 0.05 0.05
0.03 0.04 0.06 0.06 0.05 0.01 0.00 0.00 0.00 0.01 0.02 0.02 0.02 0.05 0.09 0.10 0.09 0.09 0.08 0.07 0.06 0.08 0.11 0.08 0.05 0.05 0.06 0.07 0.08 0.07 0.08 0.07 0.07 0.07 0.04 0.03 0.04 0.05 0.06 0.08 0.07 0.06 0.07 0.09 0.13 0.14 0.11 0.06 0.04
0.07 0.06 0.04 0.04 0.04 0.02 0.00 0.00 0.00 0.00 0.01 0.01 0.02 0.05 0.08 0.09 0.07 0.07 0.08 0.06 0.03 0.06 0.20 0.21 0.08 0.05 0.07 0.07 0.07 0.07 0.07 0.06 0.07 0.07 0.06 0.06 0.04 0.04 0.05 0.06 0.07 0.07 0.07 0.08 0.10 0.14 0.13 0.08 0.05
0.03 0.05 0.04 0.02 0.03 0.02 0.00 0.00 0.00 0.00 0.01 0.01 0.01 0.05 0.08 0.08 0.05 0.05 0.05 0.05 0.05 0.08 0.19 0.18 0.08 0.07 0.07 0.07 0.06 0.06 0.06 0.05 0.06 0.08 0.07 0.07 0.06 0.06 0.06 0.06 0.07 0.07 0.07 0.08 0.08 0.12 0.16 0.13 0.08
0.02 0.04 0.04 0.02 0.04 0.04 0.00 0.00 0.00 0.00 0.01 0.00 0.01 0.03 0.05 0.04 0.03 0.04 0.05 0.06 0.07 0.07 0.12 0.13 0.10 0.10 0.12 0.11 0.07 0.07 0.06 0.05 0.06 0.07 0.07 0.08 0.08 0.10 0.09 0.07 0.08 0.08 0.09 0.10 0.08 0.10 0.15 0.16 0.11
0.02 0.05 0.04 0.01 0.01 0.02 0.00 0.00 0.00 0.00 0.01 0.00 0.00 0.01 0.00 0.01 0.01 0.03 0.05 0.07 0.07 0.08 0.09 0.12 0.12 0.13 0.13 0.11 0.08 0.08 0.06 0.08 0.08 0.09 0.11 0.11 0.12 0.14 0.13 0.11 0.10 0.08 0.09 0.10 0.08 0.09 0.13 0.15 0.13
0.01 0.02 0.01 0.01 0.00 0.00 0.00 0.00 0.00 0.01 0.02 0.01 0.01 0.01 0.00 0.01 0.01 0.02 0.03 0.05 0.07 0.09 0.11 0.12 0.13 0.11 0.09 0.08 0.07 0.07 0.08 0.10 0.09 0.10 0.11 0.12 0.14 0.15 0.16 0.13 0.14 0.14 0.13 0.14 0.12 0.13 0.16 0.13 0.11
0.01 0.01 0.00 0.00 0.00 0.00 0.01 0.00 0.00 0.01 0.02 0.01 0.00 0.00 0.00 0.01 0.01 0.02 0.02 0.03 0.04 0.07 0.09 0.12 0.12 0.09 0.07 0.07 0.08 0.07 0.08 0.10 0.10 0.10 0.11 0.14 0.16 0.16 0.15 0.14 0.14 0.15 0.17 0.16 0.13 0.12 0.15 0.10 0.08
0.03 0.02 0.00 0.00 0.00 0.00 0.00 0.00 0.00 0.00 0.00 0.00 0.00 0.00 0.00 0.00 0.00 0.01 0.01 0.01 0.01 0.03 0.04 0.06 0.07 0.06 0.06 0.08 0.10 0.10 0.10 0.10 0.09 0.10 0.12 0.14 0.15 0.16 0.15 0.13 0.12 0.12 0.14 0.15 0.13 0.15 0.14 0.13 0.12
0.04 0.04 0.02 0.00 0.00 0.00 0.00 0.00 0.00 0.00 0.00 0.00 0.00 0.00 0.00 0.00 0.00 0.00 0.00 0.00 0.00 0.01 0.02 0.03 0.05 0.05 0.06 0.08 0.13 0.17 0.16 0.16 0.11 0.08 0.08 0.09 0.12 0.13 0.12 0.10 0.10 0.11 0.10 0.11 0.13 0.17 0.17 0.16 0.17
0.01 0.01 0.02 0.00 0.00 0.01 0.01 0.01 0.00 0.00 0.00 0.00 0.00 0.00 0.00 0.00 0.00 0.00 0.00 0.00 0.01 0.01 0.01 0.01 0.02 0.03 0.05 0.08 0.10 0.12 0.15 0.20 0.15 0.09 0.07 0.08 0.08 0.09 0.09 0.10 0.09 0.09 0.09 0.09 0.13 0.15 0.14 0.18 0.20
0.00 0.01 0.01 0.01 0.00 0.00 0.02 0.03 0.01 0.00 0.00 0.00 0.00 0.01 0.01 0.01 0.01 0.00 0.00 0.01 0.01 0.02 0.01 0.01 0.01 0.01 0.03 0.06 0.08 0.08 0.10 0.17 0.19 0.12 0.10 0.07 0.07 0.07 0.09 0.10 0.07 0.07 0.07 0.09 0.13 0.13 0.12 0.16 0.20
0.01 0.01 0.01 0.01 0.00 0.00 0.02 0.05 0.01 0.00 0.00 0.00 0.00 0.01 0.01 0.01 0.00 0.00 0.00 0.00 0.01 0.01 0.01 0.01 0.01 0.01 0.02 0.06 0.09 0.08 0.09 0.12 0.16 0.16 0.13 0.08 0.07 0.07 0.09 0.10 0.10 0.09 0.09 0.09 0.09 0.10 0.11 0.14 0.19
0.01 0.02 0.01 0.01 0.00 0.00 0.01 0.03 0.01 0.00 0.00 0.00 0.00 0.00 0.00 0.00 0.00 0.00 0.00 0.00 0.00 0.01 0.01 0.01 0.01 0.01 0.01 0.03 0.07 0.10 0.13 0.13 0.13 0.14 0.14 0.09 0.09 0.09 0.10 0.11 0.09 0.08 0.09 0.10 0.10 0.10 0.11 0.14 0.14
0.01 0.02 0.01 0.00 0.00 0.00 0.01 0.02 0.01 0.00 0.00 0.00 0.00 0.00 0.00 0.00 0.02 0.01 0.00 0.00 0.00 0.01 0.01 0.02 0.02 0.02 0.03 0.04 0.06 0.08 0.13 0.14 0.13 0.12 0.12 0.07 0.07 0.08 0.11 0.12 0.11 0.10 0.09 0.08 0.08 0.11 0.11 0.10 0.08
0.00 0.01 0.00 0.00 0.00 0.00 0.00 0.01 0.00 0.00 0.00 0.00 0.00 0.00 0.01 0.00 0.00 0.00 0.00 0.00 0.00 0.01 0.01 0.02 0.03 0.03 0.02 0.04 0.05 0.06 0.08 0.08 0.09 0.11 0.11 0.08 0.07 0.07 0.08 0.10 0.10 0.10 0.10 0.10 0.10 0.11 0.10 0.09 0.09
0.00 0.00 0.00 0.00 0.00 0.00 0.00 0.01 0.01 0.00 0.00 0.00 0.00 0.00 0.01 0.01 0.00 0.01 0.01 0.01 0.01 0.01 0.02 0.04 0.04 0.03 0.04 0.04 0.03 0.03 0.05 0.06 0.06 0.09 0.10 0.08 0.06 0.05 0.05 0.06 0.07 0.09 0.09 0.10 0.09 0.09 0.09 0.10 0.09
0.00 0.00 0.00 0.00 0.00 0.01 0.00 0.02 0.01 0.00 0.00 0.00 0.00 0.00 0.00 0.00 0.00 0.00 0.00 0.00 0.00 0.01 0.02 0.03 0.04 0.04 0.04 0.04 0.04 0.04 0.04 0.06 0.07 0.08 0.07 0.06 0.06 0.04 0.03 0.03 0.04 0.06 0.07 0.08 0.06 0.06 0.06 0.08 0.09
0.00 0.00 0.00 0.00 0.00 0.01 0.01 0.03 0.04 0.00 0.00 0.00 0.00 0.00 0.01 0.00 0.00 0.00 0.00 0.00 0.00 0.01 0.01 0.02 0.03 0.04 0.04 0.04 0.05 0.05 0.07 0.07 0.07 0.08 0.08 0.07 0.06 0.05 0.03 0.03 0.04 0.04 0.06 0.06 0.05 0.06 0.06 0.06 0.07
0.00 0.00 0.00 0.00 0.00 0.01 0.01 0.02 0.02 0.01 0.01 0.00 0.00 0.00 0.00 0.00 0.00 0.00 0.00 0.00 0.01 0.01 0.00 0.01 0.02 0.03 0.03 0.04 0.04 0.05 0.07 0.07 0.07 0.08 0.07 0.06 0.06 0.05 0.03 0.03 0.03 0.04 0.05 0.05 0.04 0.05 0.05 0.06 0.07
0.00 0.01 0.01 0.01 0.01 0.02 0.01 0.01 0.01 0.01 0.01 0.01 0.01 0.01 0.02 0.00 0.00 0.00 0.00 0.01 0.01 0.01 0.01 0.02 0.02 0.03 0.03 0.04 0.05 0.05 0.06 0.05 0.06 0.06 0.06 0.06 0.05 0.05 0.04 0.03 0.03 0.03 0.04 0.05 0.06 0.06 0.06 0.06 0.07
0.00 0.00 0.01 0.02 0.01 0.02 0.02 0.01 0.01 0.00 0.01 0.00 0.00 0.02 0.05 0.01 0.01 0.01 0.01 0.01 0.01 0.01 0.01 0.02 0.02 0.03 0.03 0.04 0.04 0.05 0.06 0.05 0.07 0.07 0.04 0.04 0.03 0.03 0.03 0.03 0.03 0.04 0.04 0.04 0.06 0.06 0.06 0.07 0.07
0.00 0.00 0.00 0.00 0.01 0.02 0.02 0.02 0.01 0.00 0.00 0.01 0.00 0.01 0.03 0.02 0.01 0.01 0.01 0.01 0.01 0.01 0.01 0.01 0.02 0.02 0.03 0.04 0.04 0.04 0.05 0.05 0.06 0.06 0.04 0.03 0.04 0.04 0.05 0.04 0.04 0.05 0.05 0.04 0.05 0.05 0.06 0.07 0.07
0.00 0.00 0.00 0.01 0.02 0.03 0.03 0.04 0.02 0.01 0.01 0.00 0.00 0.01 0.02 0.02 0.02 0.01 0.01 0.01 0.01 0.00 0.01 0.01 0.01 0.02 0.03 0.04 0.04 0.04 0.05 0.04 0.05 0.05 0.05 0.04 0.04 0.04 0.04 0.04 0.04 0.04 0.04 0.04 0.05 0.06 0.06 0.07 0.06
0.00 0.00 0.00 0.01 0.01 0.02 0.03 0.03 0.02 0.01 0.02 0.02 0.02 0.03 0.03 0.02 0.01 0.01 0.01 0.00 0.00 0.00 0.01 0.02 0.03 0.02 0.03 0.03 0.04 0.04 0.04 0.04 0.04 0.04 0.05 0.04 0.03 0.04 0.03 0.03 0.04 0.04 0.03 0.05 0.05 0.04 0.04 0.04 0.05
0.00 0.00 0.00 0.01 0.01 0.01 0.02 0.02 0.01 0.00 0.00 0.01 0.01 0.01 0.01 0.01 0.01 0.01 0.01 0.01 0.01 0.01 0.01 0.01 0.01 0.02 0.03 0.03 0.03 0.02 0.02 0.03 0.03 0.03 0.04 0.04 0.03 0.03 0.04 0.03 0.03 0.02 0.03 0.04 0.04 0.03 0.05 0.04 0.04
MSLP
1009.20 1009.80 1010.35 1010.74 1010.87 1010.69 1010.22 1009.54 1008.78 1008.08 1007.58 1007.37 1007.49 1007.92 1008.57 1009.33 1010.07 1010.68 1011.10 1011.32 1011.39 1011.35 1011.30 1011.29 1011.36 1011.53 1011.76 1012.01 1012.25 1012.45 1012.61 1012.74 1012.88 1013.06 1013.31 1013.62 1013.96 1014.32 1014.64 1014.90 1015.09 1015.21 1015.29 1015.37 1015.48 1015.62 1015.81 1016.01 1016.20
1009.26 1009.89 1010.39 1010.63 1010.56 1010.17 1009.53 1008.73 1007.94 1007.30 1006.93 1006.90 1007.20 1007.76 1008.50 1009.27 1009.97 1010.51 1010.87 1011.05 1011.13 1011.17 1011.23 1011.37 1011.59 1011.88 1012.19 1012.48 1012.71 1012.88 1013.00 1013.10 1013.22 1013.40 1013.65 1013.96 1014.30 1014.63 1014.91 1015.12 1015.25 1015.33 1015.38 1015.45 1015.56 1015.73 1015.94 1016.16 1016.35
1009.45 1010.08 1010.48 1010.56 1010.28 1009.68 1008.86 1007.97 1007.16 1006.60 1006.37 1006.51 1006.96 1007.64 1008.42 1009.18 1009.81 1010.26 1010.54 1010.68 1010.77 1010.89 1011.07 1011.37 1011.75 1012.17 1012.59 1012.93 1013.19 1013.35 1013.44 1013.50 1013.60 1013.76 1013.99 1014.28 1014.59 1014.88 1015.11 1015.27 1015.36 1015.40 1015.45 1015.52 1015.66 1015.85 1016.08 1016.31 1016.50
1009.72 1010.31 1010.60 1010.49 1010.01 1009.22 1008.26 1007.30 1006.51 1006.04 1005.95 1006.23 1006.81 1007.57 1008.37 1009.08 1009.62 1009.97 1010.15 1010.26 1010.36 1010.54 1010.85 1011.29 1011.83 1012.40 1012.91 1013.33 1013.61 1013.77 1013.85 1013.90 1013.97 1014.10 1014.31 1014.56 1014.83 1015.08 1015.27 1015.38 1015.44 1015.48 1015.53 1015.63 1015.79 1016.01 1016.25 1016.49 1016.66
1010.00 1010.51 1010.65 1010.38 1009.71 1008.77 1007.72 1006.73 1005.99 1005.62 1005.67 1006.08 1006.76 1007.57 1008.36 1009.00 1009.44 1009.68 1009.78 1009.84 1009.95 1010.19 1010.60 1011.17 1011.84 1012.52 1013.13 1013.61 1013.93 1014.10 1014.17 1014.21 1014.27 1014.38 1014.56 1014.79 1015.03 1015.24 1015.39 1015.49 1015.53 1015.58 1015.65 1015.78 1015.97 1016.21 1016.47 1016.68 1016.82
1010.17 1010.56 1010.55 1010.12 1009.32 1008.28 1007.20 1006.24 1005.59 1005.35 1005.53 1006.06 1006.81 1007.64 1008.40 1008.97 1009.32 1009.46 1009.48 1009.50 1009.61 1009.89 1010.37 1011.02 1011.78 1012.54 1013.20 1013.72 1014.07 1014.25 1014.34 1014.38 1014.44 1014.55 1014.73 1014.94 1015.16 1015.35 1015.49 1015.58 1015.63 1015.70 1015.80 1015.96 1016.18 1016.43 1016.68 1016.86 1016.95
1010.10 1010.35 1010.20 1009.64 1008.75 1007.70 1006.65 1005.80 1005.28 1005.18 1005.50 1006.13 1006.95 1007.78 1008.50 1009.01 1009.27 1009.34 1009.31 1009.29 1009.39 1009.69 1010.20 1010.89 1011.67 1012.44 1013.13 1013.65 1014.00 1014.20 1014.30 1014.37 1014.45 1014.59 1014.78 1015.00 1015.23 1015.41 1015.55 1015.65 1015.72 1015.80 1015.93 1016.11 1016.35 1016.60 1016.82 1016.97 1017.00
1009.76 1009.85 1009.56 1008.91 1008.01 1007.00 1006.06 1005.36 1005.01 1005.08 1005.53 1006.26 1007.12 1007.96 1008.64 1009.10 1009.31 1009.33 1009.26 1009.23 1009.33 1009.62 1010.12 1010.79 1011.54 1012.27 1012.92 1013.41 1013.75 1013.96 1014.08 1014.18 1014.31 1014.49 1014.71 1014.96 1015.20 1015.40 1015.55 1015.65 1015.74 1015.84 1015.98 1016.17 1016.41 1016.65 1016.84 1016.95 1016.94
1009.15 1009.09 1008.69 1008.00 1007.13 1006.22 1005.44 1004.93 1004.77 1005.01 1005.58 1006.39 1007.28 1008.11 1008.78 1009.20 1009.39 1009.40 1009.33 1009.30 1009.39 1009.67 1010.12 1010.73 1011.40 1012.05 1012.62 1013.05 1013.36 1013.56 1013.70 1013.85 1014.02 1014.25 1014.53 1014.81 1015.08 1015.30 1015.46 1015.57 1015.66 1015.76 1015.91 1016.09 1016.31 1016.53 1016.70 1016.77 1016.73
1008.39 1008.19 1007.71 1007.01 1006.21 1005.45 1004.85 1004.53 1004.56 1004.95 1005.62 1006.48 1007.38 1008.21 1008.85 1009.26 1009.45 1009.48 1009.45 1009.44 1009.53 1009.78 1010.19 1010.70 1011.27 1011.81 1012.27 1012.63 1012.89 1013.08 1013.24 1013.42 1013.65 1013.93 1014.25 1014.57 1014.87 1015.10 1015.27 1015.38 1015.47 1015.56 1015.69 1015.86 1016.05 1016.24 1016.39 1016.44 1016.39
1007.65 1007.33 1006.79 1006.12 1005.41 1004.79 1004.37 1004.23 1004.41 1004.90 1005.63 1006.50 1007.38 1008.18 1008.80 1009.21 1009.43 1009.51 1009.52 1009.56 1009.68 1009.91 1010.26 1010.69 1011.14 1011.57 1011.94 1012.22 1012.42 1012.60 1012.77 1012.97 1013.24 1013.56 1013.91 1014.26 1014.57 1014.81 1014.98 1015.08 1015.16 1015.24 1015.34 1015.48 1015.65 1015.82 1015.94 1015.99 1015.95
1007.08 1006.68 1006.11 1005.47 1004.85 1004.36 1004.09 1004.07 1004.35 1004.88 1005.61 1006.43 1007.25 1007.99 1008.58 1009.00 1009.25 1009.39 1009.48 1009.58 1009.74 1009.97 1010.29 1010.65 1011.01 1011.35 1011.63 1011.84 1012.01 1012.17 1012.34 1012.56 1012.85 1013.18 1013.54 1013.90 1014.20 1014.45 1014.61 1014.71 1014.78 1014.84 1014.92 1015.04 1015.18 1015.32 1015.44 1015.50 1015.47
1006.80 1006.34 1005.77 1005.17 1004.63 1004.24 1004.05 1004.11 1004.40 1004.90 1005.55 1006.27 1006.99 1007.64 1008.18 1008.59 1008.89 1009.09 1009.26 1009.44 1009.65 1009.91 1010.21 1010.53 1010.85 1011.13 1011.36 1011.54 1011.69 1011.83 1012.00 1012.22 1012.50 1012.82 1013.17 1013.50 1013.80 1014.03 1014.20 1014.30 1014.37 1014.42 1014.49 1014.59 1014.71 1014.85 1014.96 1015.03 1015.03
1006.86 1006.37 1005.81 1005.25 1004.77 1004.44 1004.29 1004.33 1004.56 1004.95 1005.46 1006.03 1006.60 1007.13 1007.60 1008.00 1008.32 1008.59 1008.84 1009.09 1009.36 1009.66 1009.99 1010.31 1010.62 1010.90 1011.12 1011.30 1011.45 1011.60 1011.76 1011.96 1012.20 1012.49 1012.79 1013.10 1013.37 1013.60 1013.77 1013.89 1013.97 1014.04 1014.12 1014.22 1014.34 1014.46 1014.58 1014.66 1014.68
1007.15 1006.67 1006.14 1005.63 1005.20 1004.89 1004.72 1004.70 1004.81 1005.04 1005.36 1005.72 1006.12 1006.52 1006.90 1007.26 1007.60 1007.92 1008.23 1008.56 1008.90 1009.25 1009.61 1009.97 1010.32 1010.62 1010.88 1011.10 1011.28 1011.44 1011.59 1011.76 1011.96 1012.18 1012.43 1012.68 1012.93 1013.15 1013.34 1013.50 1013.63 1013.74 1013.84 1013.96 1014.08 1014.21 1014.33 1014.42 1014.46
1007.55 1007.10 1006.62 1006.16 1005.78 1005.47 1005.27 1005.15 1005.10 1005.14 1005.23 1005.38 1005.59 1005.84 1006.12 1006.44 1006.78 1007.14 1007.51 1007.89 1008.29 1008.69 1009.11 1009.52 1009.92 1010.29 1010.62 1010.90 1011.13 1011.32 1011.47 1011.60 1011.73 1011.89 1012.06 1012.26 1012.48 1012.70 1012.93 1013.13 1013.32 1013.50 1013.65 1013.80 1013.95 1014.08 1014.20 1014.30 1014.34
1007.87 1007.48 1007.08 1006.70 1006.37 1006.08 1005.83 1005.60 1005.39 1005.21 1005.08 1005.01 1005.03 1005.14 1005.33 1005.61 1005.95 1006.33 1006.73 1007.16 1007.59 1008.04 1008.50 1008.97 1009.44 1009.90 1010.31 1010.68 1010.97 1011.19 1011.34 1011.43 1011.51 1011.58 1011.68 1011.82 1012.01 1012.24 1012.50 1012.77 1013.04 1013.28 1013.50 1013.70 1013.87 1014.02 1014.14 1014.24 1014.30
1007.98 1007.68 1007.40 1007.14 1006.89 1006.63 1006.34 1006.00 1005.63 1005.25 1004.91 1004.64 1004.48 1004.45 1004.57 1004.80 1005.13 1005.53 1005.96 1006.41 1006.87 1007.34 1007.84 1008.36 1008.90 1009.44 1009.94 1010.40 1010.76 1011.02 1011.18 1011.25 1011.26 1011.26 1011.28 1011.37 1011.52 1011.75 1012.05 1012.37 1012.71 1013.03 1013.31 1013.56 1013.76 1013.93 1014.07 1014.17 1014.24
1007.83 1007.66 1007.53 1007.41 1007.27 1007.07 1006.76 1006.33 1005.81 1005.25 1004.70 1004.24 1003.93 1003.79 1003.83 1004.03 1004.36 1004.77 1005.21 1005.68 1006.15 1006.64 1007.16 1007.72 1008.31 1008.92 1009.51 1010.05 1010.48 1010.79 1010.96 1011.01 1010.98 1010.91 1010.86 1010.88 1011.00 1011.22 1011.53 1011.90 1012.30 1012.67 1013.01 1013.30 1013.53 1013.72 1013.87 1014.00 1014.09
1007.45 1007.44 1007.49 1007.55 1007.55 1007.42 1007.10 1006.60 1005.94 1005.20 1004.47 1003.83 1003.37 1003.13 1003.11 1003.29 1003.62 1004.04 1004.50 1004.98 1005.46 1005.95 1006.48 1007.06 1007.70 1008.36 1009.02 1009.63 1010.13 1010.49 1010.68 1010.72 1010.65 1010.53 1010.42 1010.38 1010.45 1010.64 1010.95 1011.33 1011.75 1012.16 1012.53 1012.84 1013.10 1013.31 1013.48 1013.63 1013.76
1006.94 1007.12 1007.38 1007.64 1007.79 1007.73 1007.42 1006.84 1006.04 1005.12 1004.20 1003.39 1002.79 1002.45 1002.37 1002.53 1002.87 1003.31 1003.79 1004.29 1004.78 1005.28 1005.81 1006.40 1007.06 1007.76 1008.48 1009.15 1009.71 1010.11 1010.33 1010.38 1010.29 1010.13 1009.96 1009.86 1009.87 1010.01 1010.28 1010.64 1011.05 1011.45 1011.83 1012.15 1012.42 1012.64 1012.84 1013.03 1013.21
1006.43 1006.82 1007.31 1007.77 1008.05 1008.07 1007.74 1007.07 1006.13 1005.03 1003.91 1002.92 1002.17 1001.72 1001.59 1001.73 1002.07 1002.54 1003.06 1003.58 1004.09 1004.60 1005.14 1005.73 1006.41 1007.14 1007.89 1008.60 1009.21 1009.66 1009.92 1009.98 1009.89 1009.71 1009.50 1009.34 1009.28 1009.36 1009.56 1009.86 1010.22 1010.59 1010.93 1011.24 1011.50 1011.73 1011.95 1012.17 1012.40
1006.02 1006.64 1007.34 1007.97 1008.38 1008.44 1008.08 1007.31 1006.21 1004.92 1003.60 1002.43 1001.53 1000.97 1000.76 1000.88 1001.23 1001.73 1002.28 1002.84 1003.38 1003.91 1004.46 1005.07 1005.75 1006.49 1007.26 1008.00 1008.65 1009.14 1009.44 1009.54 1009.47 1009.27 1009.04 1008.83 1008.71 1008.70 1008.81 1009.03 1009.31 1009.61 1009.91 1010.17 1010.41 1010.64 1010.87 1011.12 1011.40
1005.76 1006.58 1007.47 1008.25 1008.74 1008.82 1008.40 1007.52 1006.26 1004.78 1003.28 1001.93 1000.88 1000.21 999.93 1000.02 1000.38 1000.90 1001.50 1002.10 1002.68 1003.24 1003.81 1004.42 1005.10 1005.84 1006.62 1007.38 1008.05 1008.58 1008.92 1009.06 1009.01 1008.84 1008.59 1008.35 1008.17 1008.09 1008.11 1008.23 1008.41 1008.62 1008.84 1009.05 1009.25 1009.45 1009.68 1009.95 1010.25
1005.59 1006.59 1007.63 1008.51 1009.05 1009.11 1008.64 1007.65 1006.25 1004.62 1002.95 1001.45 1000.28 999.51 999.17 999.22 999.57 1000.12 1000.75 1001.40 1002.02 1002.61 1003.20 1003.82 1004.49 1005.23 1006.00 1006.76 1007.44 1008.00 1008.38 1008.56 1008.56 1008.41 1008.18 1007.93 1007.71 1007.56 1007.49 1007.51 1007.59 1007.71 1007.84 1007.98 1008.12 1008.29 1008.49 1008.74 1009.04
1005.44 1006.57 1007.70 1008.63 1009.18 1009.22 1008.69 1007.63 1006.13 1004.40 1002.63 1001.04 999.77 998.94 998.55 998.57 998.92 999.49 1000.15 1000.83 1001.48 1002.10 1002.71 1003.32 1003.98 1004.70 1005.44 1006.18 1006.86 1007.43 1007.84 1008.07 1008.12 1008.02 1007.82 1007.58 1007.34 1007.15 1007.02 1006.95 1006.94 1006.96 1007.00 1007.05 1007.13 1007.23 1007.38 1007.59 1007.87
1005.20 1006.40 1007.56 1008.50 1009.03 1009.04 1008.47 1007.37 1005.86 1004.10 1002.31 1000.70 999.42 998.56 998.16 998.17 998.51 999.08 999.76 1000.46 1001.14 1001.77 1002.38 1002.99 1003.62 1004.29 1005.00 1005.70 1006.36 1006.93 1007.36 1007.63 1007.73 1007.69 1007.55 1007.34 1007.11 1006.90 1006.72 1006.59 1006.49 1006.41 1006.36 1006.32 1006.31 1006.34 1006.42 1006.57 1006.78
1004.81 1006.01 1007.15 1008.04 1008.53 1008.50 1007.94 1006.86 1005.39 1003.70 1002.00 1000.46 999.23 998.42 998.04 998.06 998.40 998.97 999.64 1000.35 1001.03 1001.67 1002.27 1002.86 1003.45 1004.08 1004.72 1005.38 1006.00 1006.54 1006.98 1007.28 1007.44 1007.46 1007.38 1007.22 1007.02 1006.82 1006.61 1006.42 1006.25 1006.09 1005.94 1005.81 1005.70 1005.63 1005.61 1005.67 1005.79
1004.26 1005.39 1006.44 1007.23 1007.65 1007.61 1007.06 1006.07 1004.73 1003.21 1001.67 1000.29 999.20 998.49 998.18 998.23 998.59 999.15 999.82 1000.51 1001.19 1001.81 1002.40 1002.95 1003.50 1004.07 1004.65 1005.24 1005.80 1006.31 1006.74 1007.06 1007.25 1007.34 1007.32 1007.22 1007.07 1006.88 1006.67 1006.44 1006.20 1005.96 1005.71 1005.47 1005.25 1005.06 1004.94 1004.88 1004.89
1003.61 1004.61 1005.50 1006.17 1006.50 1006.42 1005.93 1005.06 1003.91 1002.61 1001.31 1000.16 999.27 998.71 998.50 998.62 999.00 999.56 1000.21 1000.90 1001.56 1002.17 1002.73 1003.25 1003.76 1004.27 1004.78 1005.29 1005.79 1006.26 1006.66 1006.98 1007.21 1007.34 1007.38 1007.34 1007.23 1007.06 1006.84 1006.58 1006.27 1005.94 1005.59 1005.23 1004.88 1004.57 1004.31 1004.13 1004.03
Thickness
5829 5829 5828 5819 5799 5788 5793 5809 5818 5817 5820 5829 5832 5826 5814 5806 5797 5786 5811 5823 5822 5817 5812 5808 5805 5803 5802 5800 5798 5796 5795 5793 5792 5790 5789 5788 5787 5786 5785 5784 5783 5782 5781 5781 5780 5778 5777 5777 5776
5837 5836 5826 5811 5788 5784 5795 5815 5816 5819 5826 5833 5831 5826 5816 5810 5816 5813 5817 5822 5823 5818 5813 5808 5804 5803 5801 5799 5797 5796 5794 5793 5791 5790 5789 5787 5787 5785 5784 5783 5782 5781 5780 5779 5778 5777 5776 5775 5775
5840 5840 5821 5806 5798 5794 5800 5819 5823 5831 5837 5833 5825 5824 5815 5809 5816 5816 5820 5825 5824 5819 5813 5807 5804 5802 5801 5799 5797 5795 5793 5792 5791 5789 5788 5787 5786 5785 5784 5782 5781 5780 5779 5779 5778 5776 5776 5775 5774
5841 5834 5822 5807 5805 5818 5823 5829 5835 5832 5834 5834 5827 5815 5816 5822 5821 5822 5825 5826 5823 5819 5814 5807 5805 5802 5800 5798 5796 5794 5793 5792 5790 5789 5788 5787 5786 5785 5783 5781 5780 5779 5779 5778 5776 5775 5774 5774 5773
5844 5827 5806 5803 5815 5830 5839 5843 5842 5831 5828 5830 5824 5809 5808 5823 5828 5827 5826 5825 5821 5818 5814 5808 5805 5803 5800 5798 5796 5794 5793 5792 5790 5789 5788 5787 5786 5785 5782 5781 5780 5779 5778 5777 5775 5774 5773 5772 5772
5832 5826 5801 5803 5816 5831 5843 5849 5844 5835 5832 5832 5825 5811 5808 5824 5824 5825 5826 5824 5823 5819 5814 5809 5805 5803 5801 5798 5796 5795 5793 5791 5790 5789 5788 5787 5786 5784 5782 5781 5779 5778 5777 5776 5775 5773 5772 5772 5772
5830 5820 5812 5818 5819 5825 5840 5852 5843 5835 5831 5832 5831 5813 5810 5820 5825 5827 5826 5824 5822 5819 5814 5810 5807 5803 5800 5798 5796 5795 5793 5792 5790 5789 5788 5787 5786 5784 5782 5781 5779 5778 5776 5775 5774 5773 5772 5771 5771
5848 5829 5821 5826 5823 5825 5844 5851 5850 5840 5832 5844 5840 5815 5808 5819 5828 5827 5824 5822 5820 5817 5814 5810 5808 5805 5802 5799 5796 5795 5793 5792 5791 5790 5789 5788 5786 5784 5782 5781 5779 5777 5776 5774 5773 5772 5771 5771 5771
5854 5825 5815 5826 5828 5832 5848 5844 5847 5851 5840 5839 5840 5831 5827 5830 5829 5823 5818 5816 5814 5814 5813 5811 5809 5806 5804 5802 5799 5796 5794 5793 5792 5791 5790 5788 5787 5786 5783 5781 5780 5778 5776 5775 5774 5773 5772 5771 5771
5846 5819 5826 5845 5847 5843 5847 5846 5846 5841 5831 5829 5831 5833 5834 5830 5825 5818 5813 5810 5809 5810 5811 5811 5809 5807 5805 5803 5800 5798 5797 5795 5793 5793 5791 5789 5788 5787 5785 5782 5780 5778 5777 5775 5774 5773 5772 5772 5771
5849 5834 5846 5854 5859 5856 5848 5848 5852 5838 5825 5828 5825 5826 5829 5826 5821 5817 5814 5812 5811 5812 5811 5811 5809 5806 5804 5803 5801 5800 5799 5797 5795 5794 5793 5791 5789 5787 5786 5783 5781 5779 5777 5776 5775 5774 5774 5774 5774
5851 5853 5858 5859 5864 5858 5852 5849 5843 5838 5835 5843 5840 5835 5830 5825 5820 5818 5815 5814 5814 5812 5810 5811 5809 5806 5804 5803 5802 5801 5800 5798 5797 5795 5793 5792 5790 5788 5787 5785 5783 5781 5779 5778 5776 5775 5776 5776 5776
5851 5853 5861 5865 5864 5860 5856 5849 5843 5839 5848 5850 5843 5837 5831 5827 5824 5823 5821 5818 5816 5812 5810 5811 5810 5806 5804 5802 5801 5801 5800 5799 5798 5796 5794 5793 5791 5788 5787 5786 5784 5782 5781 5779 5777 5776 5776 5776 5777
5856 5860 5861 5863 5861 5860 5851 5848 5845 5841 5850 5844 5839 5834 5833 5829 5826 5823 5821 5817 5815 5813 5811 5811 5810 5807 5804 5801 5800 5800 5800 5800 5799 5796 5794 5792 5791 5789 5787 5785 5784 5782 5781 5779 5778 5777 5776 5776 5776
5865 5853 5853 5858 5859 5859 5853 5834 5839 5849 5850 5840 5837 5834 5832 5831 5829 5825 5823 5820 5818 5816 5814 5812 5810 5807 5804 5802 5801 5801 5801 5801 5799 5797 5795 5792 5791 5789 5787 5785 5783 5783 5782 5780 5779 5777 5776 5775 5775
5855 5842 5833 5851 5861 5862 5843 5816 5840 5853 5847 5836 5835 5834 5831 5830 5830 5828 5827 5823 5822 5818 5815 5813 5812 5808 5804 5802 5801 5801 5801 5800 5799 5797 5795 5793 5791 5789 5787 5785 5783 5783 5782 5780 5778 5776 5774 5773 5772
5837 5826 5830 5842 5862 5862 5845 5824 5841 5854 5846 5836 5835 5833 5831 5829 5829 5830 5830 5827 5824 5820 5816 5812 5810 5807 5804 5802 5801 5801 5800 5799 5798 5797 5794 5793 5791 5790 5787 5785 5784 5783 5782 5780 5779 5776 5774 5771 5770
5823 5830 5834 5838 5856 5858 5842 5834 5843 5852 5846 5838 5837 5835 5832 5829 5828 5831 5832 5830 5826 5822 5817 5813 5810 5807 5805 5802 5800 5799 5798 5797 5797 5796 5794 5793 5791 5789 5788 5785 5784 5782 5780 5778 5777 5774 5773 5772 5770
5842 5836 5833 5844 5860 5853 5841 5836 5843 5849 5847 5841 5838 5835 5833 5831 5833 5833 5832 5830 5825 5820 5816 5812 5809 5807 5804 5800 5797 5794 5793 5794 5795 5795 5794 5792 5790 5789 5787 5785 5783 5782 5779 5777 5776 5774 5771 5770 5770
5843 5831 5833 5845 5860 5852 5841 5838 5846 5848 5847 5846 5842 5838 5834 5831 5831 5830 5829 5827 5823 5819 5815 5811 5808 5806 5804 5801 5798 5796 5795 5794 5794 5793 5792 5791 5789 5788 5787 5784 5782 5781 5778 5776 5775 5773 5769 5769 5770
5840 5837 5837 5840 5852 5854 5841 5828 5835 5846 5851 5851 5850 5846 5841 5835 5829 5826 5824 5824 5822 5818 5814 5812 5808 5806 5803 5802 5799 5797 5794 5792 5790 5789 5789 5789 5789 5787 5785 5783 5781 5780 5778 5775 5774 5772 5769 5765 5767
5833 5853 5849 5842 5832 5826 5833 5805 5821 5837 5839 5843 5846 5845 5842 5840 5835 5830 5827 5823 5822 5820 5818 5813 5809 5805 5803 5801 5797 5793 5789 5786 5787 5788 5788 5788 5788 5786 5785 5783 5781 5778 5777 5774 5773 5772 5770 5767 5763
5844 5858 5850 5844 5833 5821 5827 5812 5815 5833 5827 5835 5842 5844 5842 5841 5838 5833 5830 5826 5825 5823 5819 5814 5809 5805 5802 5800 5797 5793 5790 5789 5789 5788 5786 5785 5785 5784 5783 5781 5780 5777 5775 5773 5772 5770 5768 5766 5763
5857 5849 5843 5839 5828 5804 5820 5813 5808 5825 5830 5835 5841 5844 5843 5842 5839 5835 5832 5829 5825 5824 5820 5815 5808 5803 5802 5799 5796 5793 5789 5787 5785 5784 5783 5783 5783 5782 5781 5780 5777 5775 5773 5772 5770 5768 5766 5764 5762
5847 5825 5802 5794 5795 5799 5830 5819 5816 5839 5845 5842 5839 5841 5843 5842 5839 5834 5828 5824 5822 5821 5818 5814 5807 5802 5800 5798 5795 5793 5790 5787 5785 5783 5782 5781 5779 5778 5778 5778 5775 5773 5772 5770 5768 5765 5764 5762 5760
5836 5826 5797 5781 5790 5805 5822 5812 5821 5845 5851 5849 5845 5842 5840 5838 5837 5833 5828 5824 5821 5819 5817 5813 5807 5802 5800 5797 5794 5792 5789 5787 5785 5783 5782 5781 5779 5778 5778 5776 5774 5772 5770 5769 5766 5764 5762 5760 5758
5831 5829 5840 5819 5807 5796 5804 5814 5826 5842 5840 5840 5838 5836 5832 5834 5835 5832 5829 5825 5821 5818 5816 5812 5807 5802 5799 5796 5793 5790 5788 5786 5784 5783 5782 5780 5778 5778 5776 5774 5772 5770 5768 5766 5764 5761 5759 5758 5755
5850 5842 5831 5813 5786 5779 5793 5801 5803 5818 5821 5828 5829 5828 5829 5831 5831 5831 5828 5824 5822 5819 5815 5812 5806 5802 5798 5795 5791 5789 5786 5784 5783 5781 5778 5777 5775 5775 5772 5771 5769 5767 5766 5764 5762 5759 5758 5755 5753
5835 5831 5822 5814 5808 5786 5775 5788 5823 5823 5826 5825 5828 5829 5827 5827 5826 5825 5823 5821 5820 5817 5814 5809 5802 5798 5795 5792 5788 5787 5784 5782 5780 5778 5776 5774 5772 5770 5768 5766 5765 5763 5762 5760 5758 5756 5755 5752 5750
5841 5833 5824 5797 5794 5801 5789 5791 5832 5831 5830 5827 5825 5826 5827 5826 5825 5822 5819 5816 5815 5812 5810 5805 5800 5796 5792 5789 5785 5783 5781 5779 5776 5773 5772 5770 5768 5767 5765 5762 5760 5759 5758 5756 5754 5752 5751 5748 5746